Location: Newark
(39.6172°N, 96.8533°W)
Time: 11:07:53
(UTC+00:00)

Altair - All Passes

Search period start: 19 February 2020 00:00
Search period end: 29 February 2020 00:00
Orbit: 1502 x 1682 km, 47.2° (Epoch: 18 February)

Date Brightness Start Highest point End Pass type
(mag) Time Alt. Az. Time Alt. Az. Time Alt. Az.
19 Feb - 05:20:30 10° SSE 05:24:53 14° ESE 05:29:18 10° E night (unlit)
19 Feb - 07:18:51 10° SW 07:27:56 57° SE 07:37:23 10° ENE visible
19 Feb - 09:23:10 10° WSW 09:32:41 68° NNW 09:42:38 10° ENE visible
19 Feb - 11:29:08 10° WNW 11:38:44 56° N 11:48:38 10° E visible
19 Feb - 13:34:28 10° WNW 13:44:29 86° NNE 13:54:43 10° ESE daylight
19 Feb - 15:39:49 10° WNW 15:48:46 38° SW 15:57:46 10° SSE daylight
20 Feb - 04:56:39 10° SE 04:59:53 12° ESE 05:03:08 10° E night (unlit)
20 Feb - 06:53:52 10° SSW 07:02:49 52° SE 07:12:07 10° ENE visible
20 Feb - 08:57:56 10° WSW 09:07:26 71° NNW 09:17:22 10° ENE visible
20 Feb - 11:03:53 10° WNW 11:13:26 56° N 11:23:18 10° E visible
20 Feb - 13:09:16 10° WNW 13:19:16 82° NNE 13:29:28 10° ESE daylight
20 Feb - 15:14:31 10° WNW 15:23:39 41° SW 15:32:52 10° SSE daylight
21 Feb - 04:33:56 10° SE 04:34:53 10° ESE 04:35:50 10° ESE night (unlit)
21 Feb - 06:28:55 10° SSW 06:37:43 48° SE 06:46:51 10° ENE visible
21 Feb - 08:32:43 10° WSW 08:42:12 74° NNW 08:52:07 10° ENE visible
21 Feb - 10:38:39 10° WNW 10:48:08 55° N 10:57:59 10° E visible
21 Feb - 12:44:04 10° WNW 12:54:01 79° NNE 13:04:13 10° ESE visible
21 Feb - 14:49:14 10° WNW 14:58:31 45° SW 15:07:55 10° SSE daylight
22 Feb - 06:04:00 10° SSW 06:12:38 44° SE 06:21:34 10° ENE visible
22 Feb - 08:07:31 10° WSW 08:16:59 77° NNW 08:26:52 10° ENE visible
22 Feb - 10:13:24 10° WNW 10:22:50 55° N 10:32:39 10° ENE visible
22 Feb - 12:18:52 10° WNW 12:28:46 75° NNE 12:38:56 10° ESE visible
22 Feb - 14:23:58 10° WNW 14:33:24 48° SW 14:42:57 10° SSE daylight
22 Feb - 16:34:02 10° WSW 16:36:27 11° WSW 16:38:53 10° SW daylight
23 Feb - 05:39:07 10° SSW 05:47:33 41° SE 05:56:16 10° ENE night (unlit)
23 Feb - 07:42:20 10° WSW 07:51:46 80° NNW 08:01:38 10° ENE visible
23 Feb - 09:48:08 10° W 09:57:33 55° N 10:07:20 10° ENE visible
23 Feb - 11:53:41 10° WNW 12:03:31 72° NNE 12:13:39 10° ESE visible
23 Feb - 13:58:44 10° WNW 14:08:15 52° SW 14:17:57 10° SSE daylight
23 Feb - 16:07:27 10° W 16:11:25 13° WSW 16:15:26 10° SW daylight
24 Feb - 05:14:16 10° SSW 05:22:29 37° SE 05:30:57 10° ENE night (unlit)
24 Feb - 07:17:10 10° WSW 07:26:34 84° NNW 07:36:24 10° ENE visible
24 Feb - 09:22:53 10° W 09:32:15 56° N 09:42:00 10° ENE visible
24 Feb - 11:28:30 10° WNW 11:38:17 70° NNE 11:48:21 10° ESE visible
24 Feb - 13:33:30 10° WNW 13:43:06 56° SW 13:52:55 10° SSE daylight
24 Feb - 15:41:24 10° W 15:46:23 15° WSW 15:51:25 10° SSW daylight
25 Feb - 04:49:27 10° SSW 04:57:26 34° SE 05:05:36 10° ENE night (unlit)
25 Feb - 06:52:00 10° WSW 07:01:23 88° NNW 07:11:09 10° ENE visible
25 Feb - 08:57:37 10° W 09:06:58 56° N 09:16:41 10° ENE visible
25 Feb - 11:03:17 10° WNW 11:13:01 67° NNE 11:23:03 10° ESE visible
25 Feb - 13:08:17 10° WNW 13:17:57 60° SW 13:27:51 10° SE daylight
25 Feb - 15:15:35 10° W 15:21:20 17° WSW 15:27:09 10° SSW daylight
26 Feb - 04:24:41 10° S 04:32:22 31° SE 04:40:15 10° ENE night (unlit)
26 Feb - 06:26:52 10° WSW 06:36:12 88° SSE 06:45:57 10° ENE visible
26 Feb - 08:32:22 10° W 08:41:41 57° N 08:51:23 10° ENE visible
26 Feb - 10:38:05 10° WNW 10:47:45 65° NNE 10:57:44 10° E visible
26 Feb - 12:43:04 10° WNW 12:52:47 65° SW 13:02:45 10° SE daylight
26 Feb - 14:49:54 10° W 14:56:17 19° SW 15:02:45 10° SSW daylight
27 Feb - 03:59:57 10° S 04:07:20 28° SE 04:14:52 10° ENE night (unlit)
27 Feb - 06:01:45 10° SW 06:11:02 83° SSE 06:20:43 10° ENE visible
27 Feb - 08:07:07 10° W 08:16:24 58° N 08:26:06 10° ENE visible
27 Feb - 10:12:53 10° WNW 10:22:28 63° NNE 10:32:24 10° E visible
27 Feb - 12:17:52 10° WNW 12:27:38 69° SW 12:37:38 10° SE visible
27 Feb - 14:24:20 10° W 14:31:13 21° SW 14:38:13 10° S daylight
28 Feb - 03:35:17 10° S 03:42:18 25° SE 03:49:26 10° ENE night (unlit)
28 Feb - 05:36:38 10° SW 05:45:53 79° SE 05:55:29 10° ENE night (unlit)
28 Feb - 07:41:52 10° W 07:51:08 59° N 08:00:48 10° ENE visible
28 Feb - 09:47:41 10° WNW 09:57:12 61° NNE 10:07:05 10° E visible
28 Feb - 11:52:41 10° WNW 12:02:26 74° SW 12:12:30 10° SE visible
28 Feb - 13:58:50 10° W 14:06:09 24° SW 14:13:36 10° S daylight
